Location: Colle Santa Colomba
(42.0333°N, 12.5667°E)
Time: 03:50:55
(UTC+00:00)

CZ-4B R/B - Pass Details

Date: 25 October 2021
Orbit: 808 x 882 km, 99.1° (Epoch: 28 November)

Event Time Altitude Azimuth Distance (km) Brightness Sun altitude
Rises 16:30:33 0° 142° (SE) 3,465 6.1 -4.0°
Reaches altitude 10° 16:33:03 10° 136° (SE) 2,534 5.4 -4.4°
Maximum altitude 16:38:17 41° 68° (ENE) 1,265 3.7 -5.4°
Drops below altitude 10° 16:43:33 10° 360° (N) 2,543 5.6 -6.4°
Sets 16:46:03 0° 353° (N) 3,480 6.4 -6.8°
